Precipitable_Water
0.89 0.88 0.90 0.69 0.37 0.37 0.26 0.26 0.44 0.37 0.36 0.47 0.48 0.47 0.47 0.60 0.57 0.57 1.20 1.38 1.47 1.42 1.51 1.37 1.29 1.23 1.20 1.16 1.12 1.08 1.05 1.04 1.07 1.13 1.19 1.21 1.17 1.10 0.93 0.77 0.77 0.90 0.93 1.00 1.12 1.13 1.15 1.07 0.97
0.88 0.80 0.73 0.55 0.33 0.24 0.23 0.38 0.41 0.44 0.45 0.46 0.45 0.44 0.46 0.62 0.84 0.95 1.11 1.43 1.50 1.46 1.50 1.40 1.33 1.24 1.14 1.11 1.11 1.08 1.00 1.00 1.26 1.24 1.17 1.11 1.06 1.01 0.82 0.80 0.78 0.78 0.86 0.87 0.97 0.98 0.95 0.97 0.92
0.84 0.82 0.52 0.41 0.30 0.20 0.20 0.39 0.42 0.45 0.47 0.43 0.37 0.43 0.43 0.66 0.86 0.98 1.21 1.42 1.47 1.41 1.45 1.38 1.32 1.28 1.22 1.22 1.15 1.04 1.08 1.25 1.18 1.09 1.01 1.00 0.95 0.90 0.85 0.82 0.81 0.79 0.78 0.76 0.76 0.82 0.76 0.72 0.74
0.72 0.65 0.54 0.32 0.23 0.26 0.24 0.37 0.48 0.46 0.46 0.47 0.43 0.40 0.62 0.94 0.90 1.08 1.28 1.40 1.43 1.41 1.40 1.38 1.33 1.33 1.32 1.32 1.19 1.13 1.23 1.23 1.16 1.02 0.94 0.98 1.01 0.98 0.94 0.84 0.84 0.87 0.88 0.87 0.84 0.83 0.85 0.87 0.89
0.75 0.58 0.33 0.26 0.21 0.26 0.33 0.45 0.49 0.44 0.45 0.46 0.47 0.45 0.59 0.90 1.02 1.09 1.16 1.34 1.35 1.37 1.39 1.39 1.37 1.38 1.35 1.30 1.23 1.11 1.26 1.25 1.12 0.99 1.04 1.05 1.04 1.04 1.03 0.92 0.84 0.85 0.88 0.96 1.00 1.05 1.08 1.11 1.13
0.50 0.50 0.29 0.20 0.21 0.28 0.29 0.38 0.45 0.43 0.45 0.46 0.42 0.46 0.63 1.01 0.99 1.03 1.16 1.27 1.40 1.41 1.47 1.46 1.43 1.41 1.37 1.31 1.21 1.08 1.23 1.22 1.10 1.05 1.11 1.13 1.17 1.15 1.09 1.02 0.92 0.93 0.96 0.99 1.03 1.06 1.07 1.11 1.14
0.41 0.35 0.24 0.25 0.23 0.26 0.29 0.38 0.41 0.41 0.42 0.40 0.46 0.41 0.70 0.88 1.06 1.05 1.15 1.34 1.42 1.50 1.51 1.54 1.47 1.40 1.37 1.32 1.20 1.08 1.16 1.23 1.14 1.14 1.17 1.20 1.22 1.21 1.18 1.10 1.00 1.00 1.05 1.09 1.10 1.11 1.15 1.14 1.11
0.45 0.42 0.27 0.26 0.21 0.22 0.33 0.38 0.43 0.44 0.42 0.49 0.51 0.43 0.62 0.91 1.10 1.09 1.16 1.32 1.42 1.48 1.51 1.50 1.48 1.41 1.37 1.30 1.20 1.13 1.10 1.16 1.19 1.18 1.16 1.19 1.25 1.26 1.27 1.17 1.07 1.05 1.11 1.12 1.14 1.15 1.12 1.05 0.99
0.52 0.34 0.25 0.25 0.25 0.26 0.35 0.38 0.46 0.54 0.48 0.49 0.52 0.59 0.83 1.00 1.12 1.09 1.06 1.21 1.31 1.40 1.44 1.43 1.40 1.39 1.38 1.31 1.22 1.17 1.12 1.10 1.17 1.20 1.19 1.22 1.28 1.32 1.29 1.23 1.13 1.16 1.18 1.17 1.15 1.14 1.07 1.00 0.96
0.41 0.31 0.29 0.36 0.36 0.31 0.38 0.41 0.45 0.43 0.43 0.43 0.50 0.64 0.81 0.91 0.96 0.96 0.98 1.01 1.14 1.21 1.34 1.40 1.41 1.36 1.39 1.37 1.28 1.20 1.14 1.13 1.14 1.20 1.20 1.19 1.26 1.28 1.28 1.30 1.18 1.24 1.25 1.22 1.16 1.04 1.00 0.99 0.97
0.42 0.31 0.39 0.38 0.42 0.45 0.43 0.40 0.51 0.44 0.39 0.40 0.43 0.53 0.64 0.71 0.80 0.88 0.97 1.01 1.06 1.22 1.29 1.37 1.43 1.46 1.40 1.34 1.31 1.22 1.17 1.09 1.08 1.14 1.21 1.20 1.24 1.27 1.26 1.21 1.15 1.25 1.26 1.23 1.09 1.03 0.99 0.93 0.87
0.33 0.41 0.42 0.39 0.41 0.46 0.43 0.47 0.43 0.48 0.47 0.53 0.52 0.58 0.60 0.65 0.68 0.77 0.86 0.97 1.03 1.10 1.21 1.33 1.42 1.45 1.41 1.40 1.28 1.24 1.19 1.14 1.04 1.03 1.10 1.16 1.19 1.27 1.21 1.16 1.13 1.18 1.17 1.12 1.06 1.01 0.95 0.88 0.80
0.39 0.39 0.44 0.45 0.42 0.46 0.48 0.42 0.42 0.44 0.56 0.55 0.53 0.54 0.56 0.61 0.68 0.74 0.84 0.95 1.03 1.04 1.13 1.24 1.35 1.38 1.38 1.35 1.34 1.29 1.24 1.23 1.15 1.11 1.13 1.12 1.17 1.20 1.17 1.15 1.24 1.20 1.17 1.06 1.01 0.95 0.89 0.85 0.69
0.45 0.45 0.45 0.46 0.42 0.46 0.41 0.39 0.43 0.43 0.53 0.51 0.49 0.49 0.54 0.57 0.62 0.67 0.67 0.70 0.84 1.02 1.09 1.17 1.25 1.31 1.30 1.27 1.28 1.26 1.25 1.28 1.26 1.22 1.22 1.17 1.17 1.10 1.11 1.19 1.24 1.12 1.10 1.01 0.95 0.91 0.89 0.81 0.63
0.50 0.39 0.42 0.40 0.41 0.39 0.42 0.31 0.32 0.41 0.40 0.41 0.45 0.45 0.46 0.52 0.59 0.58 0.63 0.66 0.71 0.80 1.04 1.13 1.19 1.28 1.24 1.21 1.25 1.23 1.24 1.28 1.26 1.25 1.26 1.22 1.16 1.13 1.15 1.17 1.12 1.10 1.05 0.98 0.92 0.90 0.87 0.68 0.61
0.41 0.42 0.29 0.35 0.37 0.38 0.38 0.21 0.32 0.38 0.40 0.38 0.38 0.39 0.36 0.38 0.50 0.56 0.59 0.61 0.68 0.70 0.81 1.07 1.18 1.21 1.23 1.20 1.23 1.24 1.23 1.22 1.25 1.26 1.27 1.25 1.17 1.17 1.14 1.13 1.12 1.07 1.01 0.94 0.91 0.88 0.76 0.61 0.59
0.39 0.27 0.28 0.33 0.43 0.42 0.39 0.30 0.39 0.45 0.44 0.40 0.41 0.42 0.41 0.38 0.38 0.43 0.50 0.52 0.58 0.68 0.69 0.90 1.09 1.16 1.17 1.20 1.23 1.26 1.26 1.25 1.27 1.29 1.25 1.22 1.17 1.15 1.12 1.12 1.10 1.03 0.94 0.87 0.86 0.82 0.62 0.58 0.57
0.28 0.30 0.34 0.32 0.41 0.45 0.39 0.36 0.40 0.42 0.43 0.39 0.41 0.42 0.44 0.43 0.42 0.45 0.45 0.44 0.47 0.48 0.65 0.71 1.00 1.04 1.11 1.17 1.21 1.25 1.32 1.31 1.30 1.28 1.23 1.21 1.19 1.17 1.16 1.14 1.07 1.02 0.97 0.93 0.87 0.71 0.60 0.59 0.58
0.43 0.41 0.34 0.38 0.41 0.35 0.32 0.30 0.32 0.36 0.36 0.35 0.37 0.39 0.38 0.41 0.48 0.52 0.54 0.53 0.51 0.47 0.49 0.63 0.74 1.01 1.09 1.11 1.11 1.12 1.13 1.20 1.25 1.31 1.26 1.21 1.20 1.17 1.18 1.12 1.06 1.02 1.01 0.97 0.90 0.67 0.62 0.60 0.61
0.45 0.39 0.35 0.39 0.42 0.37 0.33 0.27 0.31 0.30 0.26 0.27 0.26 0.28 0.29 0.33 0.37 0.43 0.49 0.53 0.57 0.58 0.53 0.54 0.68 0.89 1.02 1.08 1.10 1.11 1.17 1.24 1.31 1.36 1.33 1.25 1.21 1.19 1.20 1.13 1.06 1.01 0.97 0.93 0.87 0.71 0.64 0.63 0.62
0.41 0.38 0.36 0.32 0.35 0.34 0.26 0.17 0.17 0.22 0.25 0.27 0.28 0.28 0.29 0.29 0.30 0.34 0.37 0.43 0.50 0.53 0.60 0.60 0.59 0.69 0.93 1.07 1.11 1.10 1.16 1.24 1.28 1.29 1.24 1.18 1.19 1.18 1.19 1.14 1.08 1.04 0.98 0.93 0.84 0.77 0.69 0.64 0.64
0.34 0.41 0.36 0.31 0.25 0.16 0.27 0.11 0.14 0.16 0.19 0.21 0.23 0.26 0.27 0.28 0.30 0.32 0.34 0.36 0.39 0.46 0.54 0.60 0.65 0.66 0.75 0.90 1.03 1.01 0.95 0.93 1.06 1.07 1.13 1.16 1.18 1.17 1.18 1.10 1.07 1.04 0.98 0.92 0.85 0.77 0.75 0.69 0.64
0.38 0.40 0.33 0.30 0.25 0.22 0.19 0.15 0.12 0.18 0.14 0.17 0.22 0.24 0.26 0.29 0.30 0.30 0.31 0.33 0.37 0.41 0.43 0.48 0.55 0.60 0.69 0.80 0.87 0.92 0.98 1.04 1.06 1.06 1.07 1.13 1.11 1.13 1.12 1.06 1.07 1.03 1.00 0.94 0.84 0.75 0.77 0.70 0.66
0.41 0.34 0.30 0.28 0.24 0.13 0.16 0.16 0.11 0.14 0.16 0.20 0.22 0.23 0.26 0.30 0.33 0.35 0.36 0.38 0.38 0.41 0.42 0.45 0.47 0.53 0.59 0.69 0.86 0.89 0.92 0.95 0.94 1.00 1.01 1.04 1.05 1.02 1.05 1.05 1.06 1.04 1.01 0.95 0.85 0.79 0.77 0.71 0.65
0.35 0.26 0.16 0.14 0.14 0.11 0.20 0.17 0.13 0.18 0.21 0.21 0.21 0.26 0.30 0.33 0.35 0.37 0.39 0.40 0.42 0.45 0.47 0.48 0.46 0.46 0.56 0.66 0.77 0.90 0.92 0.94 0.93 0.93 0.98 0.97 0.96 0.94 0.93 0.96 0.99 1.02 0.97 0.92 0.85 0.80 0.72 0.70 0.64
0.30 0.26 0.16 0.10 0.12 0.14 0.21 0.13 0.14 0.21 0.23 0.27 0.30 0.33 0.34 0.35 0.37 0.40 0.42 0.43 0.44 0.45 0.47 0.49 0.48 0.46 0.51 0.65 0.76 0.86 0.93 0.97 1.02 1.02 0.98 1.00 0.97 0.95 0.91 0.90 0.96 0.99 0.94 0.93 0.83 0.76 0.72 0.66 0.64
0.30 0.24 0.33 0.22 0.21 0.15 0.13 0.14 0.17 0.22 0.26 0.31 0.33 0.34 0.35 0.36 0.38 0.42 0.45 0.46 0.47 0.47 0.47 0.47 0.51 0.49 0.53 0.63 0.81 0.88 0.93 1.00 1.01 1.04 1.04 1.03 0.99 0.96 0.90 0.91 0.95 0.96 0.96 0.87 0.85 0.74 0.72 0.64 0.64
0.34 0.34 0.21 0.22 0.10 0.09 0.12 0.14 0.16 0.25 0.31 0.34 0.35 0.37 0.41 0.42 0.46 0.49 0.48 0.47 0.49 0.50 0.52 0.53 0.53 0.52 0.57 0.73 0.85 0.92 0.93 1.04 1.01 1.00 0.99 0.97 0.95 0.91 0.90 0.91 0.93 0.93 0.90 0.86 0.77 0.75 0.66 0.63 0.64
0.30 0.26 0.25 0.25 0.21 0.14 0.12 0.17 0.32 0.33 0.36 0.36 0.39 0.42 0.45 0.50 0.55 0.56 0.54 0.54 0.55 0.53 0.52 0.55 0.54 0.59 0.64 0.75 0.87 0.89 0.97 1.04 1.01 0.97 0.98 0.94 0.91 0.91 0.92 0.93 0.93 0.98 0.86 0.77 0.78 0.69 0.63 0.63 0.63
0.32 0.27 0.28 0.20 0.17 0.23 0.25 0.23 0.40 0.39 0.40 0.42 0.42 0.47 0.55 0.58 0.56 0.60 0.60 0.60 0.57 0.54 0.52 0.59 0.60 0.68 0.77 0.79 0.84 0.86 0.93 0.98 0.89 0.93 0.91 0.91 0.90 0.92 0.93 0.94 0.97 0.79 0.83 0.78 0.72 0.64 0.63 0.63 0.63
Wind_Speed
19 18 16 15 13 11 12 13 14 13 11 11 10 9 11 12 12 13 11 13 13 13 12 11 9 8 7 6 5 5 5 5 6 5 5 4 4 4 4 3 2 3 3 4 3 4 4 4 5
20 18 17 16 14 13 14 15 16 16 13 11 11 13 11 12 11 11 10 13 14 14 13 12 11 9 8 7 6 6 6 6 5 5 5 5 5 4 3 3 3 3 4 4 4 5 5 6 6
20 19 16 16 16 16 14 13 11 13 11 11 11 13 15 14 12 13 13 13 13 14 14 13 11 10 9 7 7 6 6 5 5 5 6 5 4 4 3 3 3 3 4 4 5 5 5 5 5
20 18 18 17 18 16 18 16 10 11 10 11 12 13 13 14 13 15 15 15 14 14 15 14 12 11 10 9 7 7 7 7 6 6 5 5 4 4 3 3 4 4 4 4 4 5 5 5 5
21 19 19 19 19 17 17 19 16 14 12 12 12 13 12 14 14 15 16 17 17 16 16 15 14 12 11 10 9 8 8 8 7 7 6 6 6 5 5 4 4 4 4 5 5 5 5 5 6
21 21 19 22 19 18 19 20 17 16 14 14 12 14 14 14 13 16 17 17 17 17 17 16 15 14 13 11 10 9 9 8 8 8 7 7 7 7 6 5 4 4 4 4 4 5 5 6 6
23 21 23 20 19 18 19 19 18 19 17 16 14 14 15 15 14 15 17 18 18 19 18 18 17 16 15 14 12 11 10 10 9 9 8 8 8 8 7 6 6 5 5 5 6 6 6 7 8
23 22 23 22 22 19 18 17 19 19 18 16 14 15 16 16 15 16 17 19 19 20 20 20 19 18 16 15 14 13 12 11 11 10 9 8 8 8 8 7 7 6 7 7 7 7 8 9 9
25 24 24 24 22 19 19 18 17 17 17 16 15 15 16 16 15 16 17 19 20 21 21 21 21 19 18 17 16 16 14 13 13 12 10 9 8 8 8 8 7 7 8 8 9 9 10 11 11
26 27 25 22 24 21 21 19 19 18 17 17 16 15 16 17 17 17 18 19 21 22 22 22 22 21 20 19 18 18 17 16 15 15 13 12 11 10 10 10 9 10 10 10 10 10 11 12 13
27 26 24 25 24 21 22 21 19 18 19 20 21 19 21 20 21 20 20 21 21 22 22 23 23 23 22 21 21 20 19 18 18 18 17 15 14 13 12 11 12 12 11 11 11 12 12 13 14
27 27 29 27 26 25 23 22 22 20 20 19 20 21 19 22 22 23 23 23 23 23 23 24 24 24 23 22 22 22 21 21 20 20 19 18 17 16 15 14 14 13 13 13 13 13 14 14 15
28 27 28 26 26 26 25 24 25 26 24 23 23 23 22 21 22 23 23 24 26 26 25 25 25 25 24 24 23 23 23 22 21 21 21 20 19 18 18 17 16 15 15 15 15 15 15 15 15
23 25 24 26 25 25 25 25 26 26 26 26 26 27 26 25 24 25 25 24 25 27 27 27 26 26 26 25 24 24 24 23 22 22 22 21 21 20 19 19 18 17 17 16 16 16 16 16 16
22 22 22 24 25 26 24 27 29 29 29 30 31 31 32 30 29 28 28 27 26 26 28 29 28 27 26 26 25 24 25 24 23 22 22 21 21 20 20 19 19 19 18 18 18 17 17 17 17
20 20 22 23 25 26 26 29 24 25 26 29 30 31 32 34 33 32 32 32 31 29 29 30 29 29 28 27 26 25 24 23 23 23 22 22 21 21 21 20 20 20 19 19 20 19 18 18 18
21 21 21 20 22 23 26 23 25 26 27 28 27 28 30 31 32 33 33 34 36 33 31 32 32 31 29 29 28 27 26 24 24 23 23 23 22 22 22 22 21 20 20 20 20 20 19 19 18
20 20 21 21 19 21 24 28 26 26 27 28 28 27 26 28 30 31 32 33 34 36 35 33 34 33 32 30 29 28 28 26 25 25 23 23 22 22 22 22 21 20 20 19 19 19 19 19 19
20 19 19 20 19 21 24 26 27 28 29 31 32 31 31 30 29 29 27 29 33 34 36 36 34 35 33 32 31 30 30 29 28 27 24 23 23 22 23 22 21 21 20 20 19 18 18 18 19
19 20 19 20 19 20 24 30 30 32 34 34 34 32 32 32 32 32 32 31 30 31 34 36 37 35 36 35 34 33 32 31 30 29 26 25 24 24 23 23 22 21 21 20 20 19 19 19 19
16 18 18 19 19 20 21 25 23 22 24 27 28 29 29 32 33 32 33 34 34 34 34 35 37 38 37 37 36 34 33 32 31 30 29 28 27 26 25 24 23 22 21 20 20 20 20 20 19
14 13 14 14 14 17 14 21 21 22 24 24 25 27 29 30 30 31 32 33 34 35 37 37 39 40 40 39 38 37 36 35 35 34 33 31 29 27 26 25 24 23 22 21 20 20 21 20 20
15 11 11 13 14 15 17 17 20 19 21 22 22 24 26 27 28 29 30 32 34 37 38 37 40 40 42 42 41 39 38 37 36 35 34 32 31 30 28 27 26 24 23 22 22 21 21 21 21
12 11 11 12 12 14 17 16 19 16 16 14 19 22 23 28 30 29 27 27 29 31 33 39 39 40 42 43 43 42 39 37 37 37 36 34 32 31 30 29 28 26 24 23 23 22 21 21 22
10 8 9 10 12 15 12 15 20 19 19 21 25 26 24 23 25 27 28 29 30 31 34 36 41 43 42 44 44 44 42 40 39 38 38 37 34 32 31 31 29 28 26 24 23 23 23 22 22
12 11 9 12 11 14 14 18 18 21 24 25 24 25 26 26 27 28 29 30 31 33 34 38 40 43 45 45 46 44 43 40 38 38 38 37 36 34 32 31 30 28 26 25 24 24 23 23 24
10 10 9 11 13 13 16 19 22 23 22 20 21 24 27 28 29 28 29 29 31 34 36 36 39 41 43 46 46 44 43 41 39 37 36 36 36 34 32 31 30 29 27 26 24 25 24 25 25
9 9 8 10 12 15 17 19 20 18 18 20 20 21 23 24 26 28 29 29 30 31 32 36 37 39 39 42 44 43 42 41 38 37 35 35 35 33 32 31 30 29 27 26 25 25 25 26 27
10 10 11 10 11 14 16 15 16 16 19 21 23 25 28 29 31 32 32 31 31 31 31 33 35 37 37 37 41 41 40 38 36 35 34 34 33 32 31 30 29 28 27 27 26 26 26 27 28
11 11 10 9 13 13 15 21 20 22 22 26 31 36 39 42 36 32 30 29 29 29 29 31 32 34 34 34 36 38 38 36 35 34 33 32 31 30 29 29 27 27 25 25 25 26 27 28 30
Wind_Direction
244 246 247 243 238 234 237 241 235 250 238 233 240 233 236 242 238 239 235 218 217 213 213 215 215 217 223 233 242 250 254 253 248 246 251 258 269 279 288 282 269 235 222 221 224 227 241 258 273
242 243 239 236 231 234 241 236 253 245 232 243 247 245 244 241 236 228 229 217 215 213 213 213 214 218 224 233 248 255 256 249 244 242 252 261 266 271 274 273 261 244 232 231 237 246 257 265 272
236 234 231 229 229 228 230 228 261 228 236 239 249 244 240 240 236 226 228 213 212 212 213 213 215 221 227 237 252 251 247 242 240 249 255 254 253 257 266 265 258 250 241 243 248 253 261 265 269
228 229 233 230 232 234 228 236 252 238 244 243 241 249 239 243 228 233 221 216 214 214 215 215 217 224 231 242 249 249 246 243 246 252 245 240 247 255 265 263 257 253 252 250 253 255 261 268 273
224 227 230 233 236 236 235 236 250 245 242 244 241 239 242 243 230 226 224 220 220 219 217 219 220 227 235 243 246 252 247 242 245 242 244 247 250 253 258 262 260 256 256 257 257 259 263 269 275
225 226 231 232 235 237 241 242 242 242 244 245 240 242 243 232 231 227 226 223 220 218 218 222 227 233 239 242 245 249 245 242 245 245 250 251 254 256 252 258 259 260 263 261 261 262 267 274 279
225 228 231 233 234 240 241 244 241 241 240 245 244 247 241 236 230 228 227 224 222 222 225 228 232 236 238 242 244 246 244 245 245 246 251 255 258 254 250 255 258 261 262 263 266 269 273 277 282
226 231 232 232 234 243 242 244 254 233 237 239 245 243 237 234 229 230 230 225 225 227 231 234 234 237 239 241 243 244 245 246 246 247 252 256 259 248 246 252 257 262 263 266 270 271 275 279 281
226 231 232 232 234 239 249 248 252 239 234 241 246 241 236 232 229 230 231 230 228 231 234 236 237 238 239 241 243 245 246 246 245 245 248 253 251 247 248 254 258 263 266 270 273 274 276 278 280
224 230 235 235 238 242 244 243 250 240 239 240 241 241 235 236 234 233 233 235 235 232 235 237 238 239 240 243 245 247 247 247 246 246 247 249 251 250 255 257 264 266 269 273 277 277 279 280 281
229 232 236 242 242 242 243 244 246 247 239 240 239 239 242 240 239 237 237 238 238 237 236 237 238 240 241 245 245 248 248 247 247 248 247 250 252 252 255 260 264 265 270 274 275 279 281 283 285
234 235 238 242 242 244 244 244 245 242 244 249 242 240 246 247 240 239 239 240 240 239 241 239 240 241 242 244 248 248 249 249 250 249 249 249 253 251 255 262 263 266 269 273 276 278 282 285 287
233 237 240 240 242 243 244 244 244 248 250 250 249 245 247 246 242 242 242 242 242 242 242 242 240 241 242 245 248 249 250 249 250 248 249 249 251 252 257 260 262 265 270 274 277 279 283 286 288
233 234 239 241 245 246 247 247 246 246 250 252 252 248 245 247 245 244 243 246 245 242 241 241 243 242 243 245 247 250 248 248 249 248 248 249 250 256 256 259 261 266 270 274 276 279 283 286 288
231 237 245 246 246 245 253 249 245 249 251 252 252 251 251 247 247 245 246 245 246 246 243 240 241 244 244 244 247 250 247 246 248 246 246 249 251 253 256 257 261 267 270 272 275 279 282 284 287
233 240 244 246 244 245 237 247 248 248 247 249 252 251 250 250 247 247 246 247 246 247 246 242 241 242 243 244 246 248 246 246 245 244 246 249 251 252 253 257 263 267 268 271 274 276 279 282 285
234 239 241 250 244 241 233 247 246 248 249 250 253 251 251 250 249 248 247 246 246 246 246 244 241 241 243 245 245 246 246 246 245 246 248 250 252 251 254 258 263 264 268 272 274 274 275 279 283
232 237 241 241 249 242 245 249 251 252 252 253 252 252 251 250 249 249 247 246 246 245 244 244 243 242 241 244 244 245 246 245 244 248 248 248 250 253 253 257 260 262 268 273 274 272 274 276 281
234 242 246 245 250 252 251 254 255 255 254 256 256 253 254 253 252 250 249 248 246 245 242 242 243 241 240 240 243 243 244 246 245 246 247 247 248 253 254 256 257 261 266 271 272 272 272 276 280
237 242 247 250 253 259 263 265 263 259 256 254 255 254 254 254 253 252 251 249 248 245 243 242 241 242 241 240 241 246 246 246 245 244 245 246 248 250 253 253 255 260 265 268 270 270 273 275 279
235 241 247 250 260 263 270 265 259 259 254 252 252 252 253 253 253 253 252 250 249 248 245 242 241 242 243 242 242 245 245 245 244 243 243 247 249 250 252 251 252 259 263 267 269 269 270 273 278
234 245 242 252 258 255 264 264 262 261 258 258 255 255 255 255 254 254 253 252 250 249 248 246 244 243 243 242 241 241 243 244 245 244 246 246 248 250 249 249 251 256 262 266 268 271 270 271 275
232 235 244 254 260 268 260 260 261 261 264 261 258 265 257 257 257 257 255 253 252 252 249 248 246 244 243 242 241 242 244 245 244 243 243 245 248 249 248 248 250 254 260 264 267 270 270 271 274
224 238 252 257 256 262 253 248 266 265 260 258 267 276 271 264 260 257 256 257 256 255 254 250 248 246 244 242 241 241 241 241 242 242 242 244 246 247 248 247 249 253 256 261 265 268 268 273 274
220 230 254 261 254 255 265 254 263 270 271 279 277 275 277 267 259 257 258 260 261 260 259 257 251 248 245 242 240 240 241 240 240 241 241 241 243 245 247 245 247 251 255 260 263 266 268 271 275
218 225 233 250 258 270 269 263 272 271 277 283 276 274 272 269 264 262 262 263 265 265 264 260 255 250 245 242 240 238 239 239 240 241 240 241 242 245 244 243 245 248 252 256 262 265 267 271 276
223 234 246 266 273 279 268 279 284 283 289 293 288 282 280 274 268 264 264 266 270 268 266 265 258 250 246 239 237 236 236 235 238 239 239 240 241 242 241 241 243 247 250 256 258 265 267 272 278
226 235 254 269 273 278 281 283 281 295 299 296 296 293 290 284 275 267 266 268 272 271 271 266 260 248 244 237 233 232 233 233 236 237 237 237 238 238 238 239 242 247 248 254 262 263 267 273 279
231 246 255 267 271 279 294 284 298 294 296 297 294 292 289 287 279 272 269 268 271 273 273 269 261 246 239 235 229 228 229 230 232 233 234 235 234 234 235 238 241 240 251 255 259 264 269 275 280
240 248 252 272 283 284 291 292 291 293 295 298 299 297 294 290 274 268 266 268 271 273 275 274 257 238 233 229 226 225 226 226 228 229 230 230 230 232 235 239 234 244 249 256 261 266 271 277 282